137P/Shoemaker-Levy 2 (2018)

Japanese version
Home page
Updated on May 23, 2026

---------------------------------------------------------------------

* Profile

* Pictures

* Orbital Elements

Epoch 2018 Dec. 28.0 TT = JDT 2458480.5
T 2018 Dec. 13.39057 TT                                 Rudenko
q   1.9302215            (2000.0)            P               Q
n   0.10259450     Peri.  141.01592     +0.96808254     -0.24132959
a   4.5191143      Node   233.08072     +0.20352952     +0.91447977
e   0.5728761      Incl.    4.85386     +0.14625983     +0.32478730
P   9.61
From 1205 observations 1990 Sept. 16-2021 Apr. 17, mean residual 0".9.

* Finding Charts

* Magnitudes Graph

        H = 14.0  G = 0.15

---------------------------------------------------------------------

The orbital elements are published on M.P.E.C. 2021-J28.
The charts are made with StellaNavigator Ver.10 (AstroArts).
The magnitudes graphs are made with Comet for Windows.

---------------------------------------------------------------------

Copyright(C) Seiichi Yoshida (comet@aerith.net). All rights reserved.